This is the latest recevied weather packets stored in our database for station/object PE1BMM-13. If no packets are shown the sender has not sent any weather packets the latest 10 day(s).
| Time | Temp. | Humidity | Pressure | Rain* | Wind** | Luminosity | Snow |
|---|---|---|---|---|---|---|---|
| 1777809760 | 15° C | 96% | 1010.7 hPa | 0.76 mm | - | - | - |
| 1777809460 | 15° C | 96% | 1010.8 hPa | 0.76 mm | - | - | - |
| 1777809160 | 14.44° C | 96% | 1010.6 hPa | 0.76 mm | - | - | - |
| 1777808859 | 15° C | 96% | 1010.6 hPa | 1.52 mm | - | - | - |
| 1777808561 | 15° C | 96% | 1010.6 hPa | 1.52 mm | - | - | - |
| 1777808292 | 15° C | 96% | 1010.6 hPa | 1.78 mm | - | - | - |
| 1777807959 | 15° C | 96% | 1010.7 hPa | 2.29 mm | - | - | - |
| 1777807660 | 15° C | 96% | 1010.7 hPa | 2.54 mm | - | - | - |
| 1777807359 | 15° C | 96% | 1010.8 hPa | 2.29 mm | - | - | - |
| 1777807058 | 15° C | 96% | 1010.8 hPa | 2.29 mm | - | - | - |
| 1777806752 | 15° C | 96% | 1010.7 hPa | 2.29 mm | - | - | - |
| 1777806446 | 15° C | 96% | 1010.8 hPa | 2.29 mm | - | - | - |
| 1777806140 | 15° C | 96% | 1010.7 hPa | 2.29 mm | - | - | - |
| 1777805834 | 15° C | 95% | 1010.7 hPa | 2.03 mm | - | - | - |
| 1777805528 | 15° C | 95% | 1010.7 hPa | 2.03 mm | - | - | - |
| 1777805222 | 15° C | 95% | 1010.7 hPa | 1.52 mm | - | - | - |
| 1777804917 | 15.56° C | 94% | 1010.6 hPa | 1.27 mm | - | - | - |
| 1777804610 | 15.56° C | 94% | 1010.6 hPa | 0.76 mm | - | - | - |
| 1777804303 | 15.56° C | 93% | 1010.6 hPa | 0 mm | - | - | - |
| 1777803998 | 15.56° C | 93% | 1010.7 hPa | 0 mm | - | - | - |
| 1777803695 | 16.11° C | 93% | 1010.8 hPa | 0 mm | - | - | - |
| 1777803386 | 16.11° C | 93% | 1010.6 hPa | 0 mm | - | - | - |
| 1777803080 | 16.67° C | 93% | 1010.6 hPa | 0 mm | - | - | - |
| 1777802776 | 16.67° C | 93% | 1010.5 hPa | 0 mm | - | - | - |
| 1777802471 | 16.67° C | 93% | 1010.5 hPa | 0 mm | - | - | - |
* Rain latest hour (hover to see other rain measurements)
** Current wind speed in m/s (hover to see current wind gust speed)